Time,TemperatureF,DewpointF,PressureIn,WindDirection,WindDirectionDegrees,WindSpeedMPH,WindSpeedGustMPH,Humidity,HourlyPrecipIn,Conditions,Clouds,dailyrainin,SoftwareType,DateUTC
2014-01-28 00:04:00,39.9,23.2,30.11,South,175,2.0,4.0,51,0.00,,,0.00,Wunderground v.1.15,2014-01-28 05:04:00,
2014-01-28 00:10:00,39.8,23.1,30.11,SE,137,1.0,1.0,51,0.00,,,0.00,Wunderground v.1.15,2014-01-28 05:10:00,
2014-01-28 00:15:00,39.7,23.5,30.11,SSE,168,1.0,1.0,52,0.00,,,0.00,Wunderground v.1.15,2014-01-28 05:15:00,
2014-01-28 00:20:00,39.6,23.4,30.12,SSE,149,1.0,2.0,52,0.00,,,0.00,Wunderground v.1.15,2014-01-28 05:20:00,
2014-01-28 00:25:00,39.5,23.8,30.12,NE,47,1.0,3.0,53,0.00,,,0.00,Wunderground v.1.15,2014-01-28 05:25:00,
2014-01-28 00:30:00,39.2,23.5,30.12,SE,139,2.0,2.0,53,0.00,,,0.00,Wunderground v.1.15,2014-01-28 05:30:00,
2014-01-28 00:35:00,39.0,23.3,30.12,South,185,2.0,2.0,53,0.00,,,0.00,Wunderground v.1.15,2014-01-28 05:35:00,
2014-01-28 00:45:00,38.4,22.3,30.13,South,189,2.0,3.0,52,0.00,,,0.00,Wunderground v.1.15,2014-01-28 05:45:00,
2014-01-28 00:50:00,38.1,21.5,30.13,SSE,164,1.0,1.0,51,0.00,,,0.00,Wunderground v.1.15,2014-01-28 05:50:00,
2014-01-28 00:59:00,37.7,20.7,30.14,SSE,156,1.0,3.0,50,0.00,,,0.00,Wunderground v.1.15,2014-01-28 05:59:00,
2014-01-28 01:04:00,37.3,19.4,30.14,South,189,1.0,3.0,48,0.00,,,0.00,Wunderground v.1.15,2014-01-28 06:04:00,
2014-01-28 01:10:00,37.1,18.2,30.13,South,189,2.0,2.0,46,0.00,,,0.00,Wunderground v.1.15,2014-01-28 06:10:00,
2014-01-28 01:20:00,36.8,17.9,30.13,South,176,1.0,1.0,46,0.00,,,0.00,Wunderground v.1.15,2014-01-28 06:20:00,
2014-01-28 01:25:00,36.6,17.2,30.13,SSE,164,1.0,7.0,45,0.00,,,0.00,Wunderground v.1.15,2014-01-28 06:25:00,
2014-01-28 01:30:00,36.4,16.5,30.14,South,187,2.0,2.0,44,0.00,,,0.00,Wunderground v.1.15,2014-01-28 06:30:00,
2014-01-28 01:35:00,36.3,15.9,30.13,SE,131,3.0,4.0,43,0.00,,,0.00,Wunderground v.1.15,2014-01-28 06:35:00,
2014-01-28 01:40:00,36.2,15.3,30.14,SSE,166,3.0,7.0,42,0.00,,,0.00,Wunderground v.1.15,2014-01-28 06:40:00,
2014-01-28 01:50:00,36.0,14.0,30.15,West,271,2.0,2.0,40,0.00,,,0.00,Wunderground v.1.15,2014-01-28 06:50:00,
2014-01-28 01:55:00,35.8,13.8,30.14,SSE,152,2.0,7.0,40,0.00,,,0.00,Wunderground v.1.15,2014-01-28 06:55:00,
2014-01-28 02:04:00,35.2,11.5,30.14,South,189,3.0,9.0,37,0.00,,,0.00,Wunderground v.1.15,2014-01-28 07:04:00,
2014-01-28 02:09:00,35.0,10.7,30.16,South,188,3.0,3.0,36,0.00,,,0.00,Wunderground v.1.15,2014-01-28 07:09:00,
2014-01-28 02:15:00,34.9,10.6,30.17,SSW,200,3.0,7.0,36,0.00,,,0.00,Wunderground v.1.15,2014-01-28 07:15:00,
2014-01-28 02:25:00,34.8,10.5,30.17,SSW,200,2.0,7.0,36,0.00,,,0.00,Wunderground v.1.15,2014-01-28 07:25:00,
2014-01-28 02:30:00,34.7,10.4,30.17,SSE,149,2.0,2.0,36,0.00,,,0.00,Wunderground v.1.15,2014-01-28 07:30:00,
2014-01-28 02:35:00,34.6,11.0,30.17,South,172,1.0,7.0,37,0.00,,,0.00,Wunderground v.1.15,2014-01-28 07:35:00,
2014-01-28 02:40:00,34.5,10.2,30.18,SSE,165,1.0,7.0,36,0.00,,,0.00,Wunderground v.1.15,2014-01-28 07:40:00,
2014-01-28 02:45:00,34.4,10.2,30.18,South,174,1.0,7.0,36,0.00,,,0.00,Wunderground v.1.15,2014-01-28 07:45:00,
2014-01-28 02:50:00,34.2,9.4,30.18,SE,133,2.0,7.0,35,0.00,,,0.00,Wunderground v.1.15,2014-01-28 07:50:00,
2014-01-28 03:00:00,33.8,7.7,30.19,SW,221,4.0,4.0,33,0.00,,,0.00,Wunderground v.1.15,2014-01-28 08:00:00,
2014-01-28 03:05:00,33.6,6.8,30.19,SW,219,3.0,10.0,32,0.00,,,0.00,Wunderground v.1.15,2014-01-28 08:05:00,
2014-01-28 03:10:00,33.4,6.0,30.20,South,181,3.0,7.0,31,0.00,,,0.00,Wunderground v.1.15,2014-01-28 08:10:00,
2014-01-28 03:19:00,33.3,5.9,30.19,SSE,149,3.0,7.0,31,0.00,,,0.00,Wunderground v.1.15,2014-01-28 08:19:00,
2014-01-28 03:25:00,33.2,5.8,30.19,SE,143,3.0,7.0,31,0.00,,,0.00,Wunderground v.1.15,2014-01-28 08:25:00,
2014-01-28 03:35:00,33.1,6.4,30.19,South,174,1.0,7.0,32,0.00,,,0.00,Wunderground v.1.15,2014-01-28 08:35:00,
2014-01-28 03:40:00,33.0,5.6,30.20,SSE,163,2.0,2.0,31,0.00,,,0.00,Wunderground v.1.15,2014-01-28 08:40:00,
2014-01-28 03:45:00,32.9,6.2,30.19,ESE,122,2.0,7.0,32,0.00,,,0.00,Wunderground v.1.15,2014-01-28 08:45:00,
2014-01-28 03:50:00,32.8,6.8,30.19,South,176,2.0,2.0,33,0.00,,,0.00,Wunderground v.1.15,2014-01-28 08:50:00,
2014-01-28 03:55:00,32.8,6.8,30.19,South,178,2.0,7.0,33,0.00,,,0.00,Wunderground v.1.15,2014-01-28 08:55:00,
2014-01-28 04:00:00,32.7,6.7,30.20,ESE,123,2.0,2.0,33,0.00,,,0.00,Wunderground v.1.15,2014-01-28 09:00:00,
2014-01-28 04:05:00,32.6,6.6,30.20,South,188,2.0,4.0,33,0.00,,,0.00,Wunderground v.1.15,2014-01-28 09:05:00,
2014-01-28 04:10:00,32.5,5.9,30.20,SW,217,2.0,7.0,32,0.00,,,0.00,Wunderground v.1.15,2014-01-28 09:10:00,
2014-01-28 04:15:00,32.4,5.1,30.20,SW,214,2.0,7.0,31,0.00,,,0.00,Wunderground v.1.15,2014-01-28 09:15:00,
2014-01-28 04:24:00,32.2,4.9,30.21,SSE,154,3.0,4.0,31,0.00,,,0.00,Wunderground v.1.15,2014-01-28 09:24:00,
2014-01-28 04:29:00,32.1,5.5,30.21,SW,216,3.0,7.0,32,0.00,,,0.00,Wunderground v.1.15,2014-01-28 09:29:00,
2014-01-28 04:39:00,32.0,5.4,30.21,SSW,200,3.0,3.0,32,0.00,,,0.00,Wunderground v.1.15,2014-01-28 09:39:00,
2014-01-28 04:45:00,31.9,6.0,30.21,SE,135,3.0,7.0,33,0.00,,,0.00,Wunderground v.1.15,2014-01-28 09:45:00,
2014-01-28 04:50:00,31.9,6.7,30.21,SSW,205,2.0,2.0,34,0.00,,,0.00,Wunderground v.1.15,2014-01-28 09:50:00,
2014-01-28 04:55:00,31.8,6.6,30.21,SSW,210,2.0,5.0,34,0.00,,,0.00,Wunderground v.1.15,2014-01-28 09:55:00,
2014-01-28 05:00:00,31.7,6.5,30.21,SSE,158,2.0,7.0,34,0.00,,,0.00,Wunderground v.1.15,2014-01-28 10:00:00,
2014-01-28 05:05:00,31.7,7.1,30.22,South,185,1.0,7.0,35,0.00,,,0.00,Wunderground v.1.15,2014-01-28 10:05:00,
2014-01-28 05:15:00,31.6,7.0,30.21,South,185,2.0,7.0,35,0.00,,,0.00,Wunderground v.1.15,2014-01-28 10:15:00,
2014-01-28 05:20:00,31.6,7.7,30.22,SSW,205,2.0,7.0,36,0.00,,,0.00,Wunderground v.1.15,2014-01-28 10:20:00,
2014-01-28 05:25:00,31.6,7.7,30.22,SSE,162,2.0,7.0,36,0.00,,,0.00,Wunderground v.1.15,2014-01-28 10:25:00,
2014-01-28 05:30:00,31.5,8.2,30.22,SSE,162,2.0,7.0,37,0.00,,,0.00,Wunderground v.1.15,2014-01-28 10:30:00,
2014-01-28 05:39:00,31.5,8.2,30.23,SSE,150,2.0,7.0,37,0.00,,,0.00,Wunderground v.1.15,2014-01-28 10:39:00,
2014-01-28 05:49:00,31.4,8.7,30.23,South,185,1.0,1.0,38,0.00,,,0.00,Wunderground v.1.15,2014-01-28 10:49:00,
2014-01-28 05:55:00,31.3,8.6,30.23,SSW,196,1.0,2.0,38,0.00,,,0.00,Wunderground v.1.15,2014-01-28 10:55:00,
2014-01-28 06:00:00,31.1,7.2,30.23,SSE,153,3.0,7.0,36,0.00,,,0.00,Wunderground v.1.15,2014-01-28 11:00:00,
2014-01-28 06:05:00,31.0,7.1,30.24,South,174,4.0,7.0,36,0.00,,,0.00,Wunderground v.1.15,2014-01-28 11:05:00,
2014-01-28 06:10:00,30.9,7.6,30.25,WSW,252,2.0,7.0,37,0.00,,,0.00,Wunderground v.1.15,2014-01-28 11:10:00,
2014-01-28 06:15:00,30.8,8.1,30.25,SSW,210,2.0,7.0,38,0.00,,,0.00,Wunderground v.1.15,2014-01-28 11:15:00,
2014-01-28 06:20:00,30.6,8.5,30.25,SSE,162,2.0,7.0,39,0.00,,,0.00,Wunderground v.1.15,2014-01-28 11:20:00,
2014-01-28 06:25:00,30.4,8.4,30.25,SSE,164,2.0,7.0,39,0.00,,,0.00,Wunderground v.1.15,2014-01-28 11:25:00,
2014-01-28 06:30:00,30.3,8.3,30.25,SSE,163,2.0,7.0,39,0.00,,,0.00,Wunderground v.1.15,2014-01-28 11:30:00,
2014-01-28 06:35:00,30.1,8.7,30.26,WSW,249,2.0,7.0,40,0.00,,,0.00,Wunderground v.1.15,2014-01-28 11:35:00,
2014-01-28 06:40:00,30.0,8.6,30.26,SW,231,2.0,2.0,40,0.00,,,0.00,Wunderground v.1.15,2014-01-28 11:40:00,
2014-01-28 06:50:00,29.8,8.4,30.27,SSW,200,2.0,2.0,40,0.00,,,0.00,Wunderground v.1.15,2014-01-28 11:50:00,
2014-01-28 06:59:00,29.8,8.4,30.28,WSW,258,2.0,7.0,40,0.00,,,0.00,Wunderground v.1.15,2014-01-28 11:59:00,
2014-01-28 07:05:00,29.7,8.3,30.28,SSE,160,2.0,7.0,40,0.00,,,0.00,Wunderground v.1.15,2014-01-28 12:05:00,
2014-01-28 07:10:00,29.6,8.2,30.28,SSW,200,2.0,2.0,40,0.00,,,0.00,Wunderground v.1.15,2014-01-28 12:10:00,
2014-01-28 07:15:00,29.6,8.2,30.28,SSW,200,2.0,7.0,40,0.00,,,0.00,Wunderground v.1.15,2014-01-28 12:15:00,
2014-01-28 07:20:00,29.5,8.1,30.28,SSW,200,2.0,7.0,40,0.00,,,0.00,Wunderground v.1.15,2014-01-28 12:20:00,
2014-01-28 07:30:00,29.3,7.4,30.29,SSE,166,3.0,7.0,39,0.00,,,0.00,Wunderground v.1.15,2014-01-28 12:30:00,
2014-01-28 07:35:00,29.2,6.7,30.29,SSE,151,3.0,7.0,38,0.00,,,0.00,Wunderground v.1.15,2014-01-28 12:35:00,
2014-01-28 07:40:00,29.2,7.3,30.29,South,178,3.0,3.0,39,0.00,,,0.00,Wunderground v.1.15,2014-01-28 12:40:00,
2014-01-28 07:45:00,29.2,6.7,30.30,SSE,151,2.0,7.0,38,0.00,,,0.00,Wunderground v.1.15,2014-01-28 12:45:00,
2014-01-28 07:50:00,29.1,7.2,30.29,SSE,164,2.0,7.0,39,0.00,,,0.00,Wunderground v.1.15,2014-01-28 12:50:00,
2014-01-28 07:55:00,29.1,6.6,30.30,South,170,3.0,7.0,38,0.00,,,0.00,Wunderground v.1.15,2014-01-28 12:55:00,
2014-01-28 08:00:00,29.1,6.0,30.30,SSW,200,2.0,7.0,37,0.00,,,0.00,Wunderground v.1.15,2014-01-28 13:00:00,
2014-01-28 08:05:00,29.0,5.9,30.31,SE,143,3.0,7.0,37,0.00,,,0.00,Wunderground v.1.15,2014-01-28 13:05:00,
2014-01-28 08:10:00,28.9,5.8,30.31,SSE,147,3.0,7.0,37,0.00,,,0.00,Wunderground v.1.15,2014-01-28 13:10:00,
2014-01-28 08:20:00,28.7,4.5,30.31,WSW,241,3.0,7.0,35,0.00,,,0.00,Wunderground v.1.15,2014-01-28 13:20:00,
2014-01-28 08:25:00,28.6,4.4,30.31,SSW,210,3.0,7.0,35,0.00,,,0.00,Wunderground v.1.15,2014-01-28 13:25:00,
2014-01-28 08:35:00,28.5,3.0,30.31,SSW,193,4.0,4.0,33,0.00,,,0.00,Wunderground v.1.15,2014-01-28 13:35:00,
2014-01-28 08:40:00,28.6,3.7,30.30,South,176,4.0,7.0,34,0.00,,,0.00,Wunderground v.1.15,2014-01-28 13:40:00,
2014-01-28 08:45:00,28.5,3.0,30.30,SSE,166,3.0,7.0,33,0.00,,,0.00,Wunderground v.1.15,2014-01-28 13:45:00,
2014-01-28 08:50:00,28.5,3.0,30.30,SW,217,4.0,7.0,33,0.00,,,0.00,Wunderground v.1.15,2014-01-28 13:50:00,
2014-01-28 08:55:00,28.4,2.9,30.31,ESE,118,4.0,7.0,33,0.00,,,0.00,Wunderground v.1.15,2014-01-28 13:55:00,
2014-01-28 09:00:00,28.4,3.6,30.31,ESE,122,4.0,7.0,34,0.00,,,0.00,Wunderground v.1.15,2014-01-28 14:00:00,
2014-01-28 09:05:00,28.5,3.6,30.32,South,175,3.0,7.0,34,0.00,,,0.00,Wunderground v.1.15,2014-01-28 14:05:00,
2014-01-28 09:10:00,28.6,3.7,30.33,South,183,3.0,7.0,34,0.00,,,0.00,Wunderground v.1.15,2014-01-28 14:10:00,
2014-01-28 09:15:00,28.8,4.5,30.34,SSW,205,2.0,7.0,35,0.00,,,0.00,Wunderground v.1.15,2014-01-28 14:15:00,
2014-01-28 09:20:00,29.0,4.7,30.33,SSW,200,2.0,7.0,35,0.00,,,0.00,Wunderground v.1.15,2014-01-28 14:20:00,
2014-01-28 09:30:00,28.9,4.0,30.33,SSW,210,3.0,7.0,34,0.00,,,0.00,Wunderground v.1.15,2014-01-28 14:30:00,
2014-01-28 09:35:00,29.1,4.8,30.33,SSE,147,3.0,7.0,35,0.00,,,0.00,Wunderground v.1.15,2014-01-28 14:35:00,
2014-01-28 09:45:00,29.4,5.1,30.33,South,174,2.0,7.0,35,0.00,,,0.00,Wunderground v.1.15,2014-01-28 14:45:00,
2014-01-28 09:50:00,29.5,5.2,30.33,South,178,2.0,7.0,35,0.00,,,0.00,Wunderground v.1.15,2014-01-28 14:50:00,
2014-01-28 09:55:00,29.4,5.7,30.34,South,173,4.0,7.0,36,0.00,,,0.00,Wunderground v.1.15,2014-01-28 14:55:00,
2014-01-28 10:00:00,29.6,5.9,30.34,SE,139,4.0,7.0,36,0.00,,,0.00,Wunderground v.1.15,2014-01-28 15:00:00,
2014-01-28 10:05:00,29.7,5.3,30.35,West,263,3.0,7.0,35,0.00,,,0.00,Wunderground v.1.15,2014-01-28 15:05:00,
2014-01-28 10:10:00,30.0,5.0,30.34,SSW,210,3.0,3.0,34,0.00,,,0.00,Wunderground v.1.15,2014-01-28 15:10:00,
2014-01-28 10:15:00,30.6,5.5,30.34,SSE,153,3.0,7.0,34,0.00,,,0.00,Wunderground v.1.15,2014-01-28 15:15:00,
2014-01-28 10:20:00,30.4,4.7,30.33,SSW,210,3.0,7.0,33,0.00,,,0.00,Wunderground v.1.15,2014-01-28 15:20:00,
2014-01-28 10:25:00,30.3,3.9,30.32,WSW,240,3.0,7.0,32,0.00,,,0.00,Wunderground v.1.15,2014-01-28 15:25:00,
2014-01-28 10:30:00,30.5,3.4,30.33,SE,136,4.0,4.0,31,0.00,,,0.00,Wunderground v.1.15,2014-01-28 15:30:00,
2014-01-28 10:35:00,31.0,3.1,30.33,SW,216,4.0,7.0,30,0.00,,,0.00,Wunderground v.1.15,2014-01-28 15:35:00,
2014-01-28 10:45:00,32.2,4.9,30.33,SSE,168,4.0,7.0,31,0.00,,,0.00,Wunderground v.1.15,2014-01-28 15:45:00,
2014-01-28 10:55:00,33.0,4.1,30.33,SW,215,3.0,7.0,29,0.00,,,0.00,Wunderground v.1.15,2014-01-28 15:55:00,
2014-01-28 11:00:00,32.8,3.2,30.33,SW,216,4.0,4.0,28,0.00,,,0.00,Wunderground v.1.15,2014-01-28 16:00:00,
2014-01-28 11:05:00,32.6,3.0,30.33,WSW,238,4.0,7.0,28,0.00,,,0.00,Wunderground v.1.15,2014-01-28 16:05:00,
2014-01-28 11:10:00,32.9,3.3,30.33,ESE,106,4.0,4.0,28,0.00,,,0.00,Wunderground v.1.15,2014-01-28 16:10:00,
2014-01-28 11:15:00,32.8,4.0,30.33,SSE,147,3.0,7.0,29,0.00,,,0.00,Wunderground v.1.15,2014-01-28 16:15:00,
2014-01-28 11:20:00,33.1,4.2,30.33,South,186,3.0,3.0,29,0.00,,,0.00,Wunderground v.1.15,2014-01-28 16:20:00,
2014-01-28 11:25:00,33.2,3.6,30.33,ESE,122,3.0,7.0,28,0.00,,,0.00,Wunderground v.1.15,2014-01-28 16:25:00,
2014-01-28 11:30:00,33.2,4.3,30.33,South,172,2.0,7.0,29,0.00,,,0.00,Wunderground v.1.15,2014-01-28 16:30:00,
2014-01-28 11:35:00,32.9,4.1,30.33,SSW,193,2.0,7.0,29,0.00,,,0.00,Wunderground v.1.15,2014-01-28 16:35:00,
2014-01-28 11:40:00,33.4,6.0,30.32,SE,138,2.0,7.0,31,0.00,,,0.00,Wunderground v.1.15,2014-01-28 16:40:00,
2014-01-28 11:45:00,33.2,5.1,30.33,SSW,195,2.0,7.0,30,0.00,,,0.00,Wunderground v.1.15,2014-01-28 16:45:00,
2014-01-28 11:55:00,32.7,4.6,30.33,SSE,147,2.0,7.0,30,0.00,,,0.00,Wunderground v.1.15,2014-01-28 16:55:00,
2014-01-28 12:05:00,32.4,4.4,30.32,SSW,200,2.0,7.0,30,0.00,,,0.00,Wunderground v.1.15,2014-01-28 17:05:00,
2014-01-28 12:10:00,32.6,5.3,30.33,SSW,210,2.0,2.0,31,0.00,,,0.00,Wunderground v.1.15,2014-01-28 17:10:00,
2014-01-28 12:15:00,32.8,5.4,30.32,East,84,2.0,7.0,31,0.00,,,0.00,Wunderground v.1.15,2014-01-28 17:15:00,
2014-01-28 12:20:00,32.8,5.4,30.31,SSW,194,2.0,2.0,31,0.00,,,0.00,Wunderground v.1.15,2014-01-28 17:20:00,
2014-01-28 12:25:00,32.8,4.7,30.32,SSW,200,2.0,3.0,30,0.00,,,0.00,Wunderground v.1.15,2014-01-28 17:25:00,
2014-01-28 12:30:00,32.6,3.8,30.31,ESE,112,2.0,7.0,29,0.00,,,0.00,Wunderground v.1.15,2014-01-28 17:30:00,
2014-01-28 12:35:00,32.7,5.3,30.31,SSE,157,2.0,7.0,31,0.00,,,0.00,Wunderground v.1.15,2014-01-28 17:35:00,
2014-01-28 12:40:00,32.8,4.7,30.30,SSW,200,2.0,7.0,30,0.00,,,0.00,Wunderground v.1.15,2014-01-28 17:40:00,
2014-01-28 12:45:00,32.7,5.3,30.30,South,189,2.0,7.0,31,0.00,,,0.00,Wunderground v.1.15,2014-01-28 17:45:00,
2014-01-28 12:50:00,33.1,5.0,30.30,SSW,210,2.0,7.0,30,0.00,,,0.00,Wunderground v.1.15,2014-01-28 17:50:00,
2014-01-28 12:55:00,33.5,5.3,30.29,SSE,149,2.0,7.0,30,0.00,,,0.00,Wunderground v.1.15,2014-01-28 17:55:00,
2014-01-28 13:05:00,33.8,4.8,30.28,SSE,164,1.0,7.0,29,0.00,,,0.00,Wunderground v.1.15,2014-01-28 18:05:00,
2014-01-28 13:10:00,33.5,5.3,30.28,SSW,194,1.0,7.0,30,0.00,,,0.00,Wunderground v.1.15,2014-01-28 18:10:00,
2014-01-28 13:20:00,33.3,4.4,30.27,SSE,147,2.0,7.0,29,0.00,,,0.00,Wunderground v.1.15,2014-01-28 18:20:00,
2014-01-28 13:25:00,33.2,5.8,30.27,South,187,2.0,7.0,31,0.00,,,0.00,Wunderground v.1.15,2014-01-28 18:25:00,
2014-01-28 13:30:00,33.1,4.2,30.27,SSW,193,2.0,2.0,29,0.00,,,0.00,Wunderground v.1.15,2014-01-28 18:30:00,
2014-01-28 13:35:00,33.0,3.4,30.27,SE,134,2.0,3.0,28,0.00,,,0.00,Wunderground v.1.15,2014-01-28 18:35:00,
2014-01-28 13:40:00,32.8,4.0,30.26,SSE,163,2.0,2.0,29,0.00,,,0.00,Wunderground v.1.15,2014-01-28 18:40:00,
2014-01-28 13:45:00,33.0,4.1,30.26,SSW,210,3.0,5.0,29,0.00,,,0.00,Wunderground v.1.15,2014-01-28 18:45:00,
2014-01-28 13:50:00,32.7,4.6,30.26,SW,214,3.0,3.0,30,0.00,,,0.00,Wunderground v.1.15,2014-01-28 18:50:00,
2014-01-28 13:55:00,32.7,4.6,30.26,SSW,210,3.0,7.0,30,0.00,,,0.00,Wunderground v.1.15,2014-01-28 18:55:00,
2014-01-28 14:00:00,32.7,4.6,30.26,SSE,168,2.0,7.0,30,0.00,,,0.00,Wunderground v.1.15,2014-01-28 19:00:00,
2014-01-28 14:10:00,32.5,5.2,30.26,SSW,194,3.0,7.0,31,0.00,,,0.00,Wunderground v.1.15,2014-01-28 19:10:00,
2014-01-28 14:15:00,32.3,5.7,30.26,SW,231,2.0,7.0,32,0.00,,,0.00,Wunderground v.1.15,2014-01-28 19:15:00,
2014-01-28 14:20:00,32.2,5.6,30.26,South,171,2.0,7.0,32,0.00,,,0.00,Wunderground v.1.15,2014-01-28 19:20:00,
2014-01-28 14:30:00,32.0,6.1,30.26,South,184,2.0,7.0,33,0.00,,,0.00,Wunderground v.1.15,2014-01-28 19:30:00,
2014-01-28 14:35:00,32.0,6.1,30.26,SSW,200,1.0,7.0,33,0.00,,,0.00,Wunderground v.1.15,2014-01-28 19:35:00,
2014-01-28 14:40:00,32.0,6.1,30.26,SSE,154,1.0,1.0,33,0.00,,,0.00,Wunderground v.1.15,2014-01-28 19:40:00,
2014-01-28 14:45:00,31.9,6.7,30.26,SE,135,1.0,7.0,34,0.00,,,0.00,Wunderground v.1.15,2014-01-28 19:45:00,
2014-01-28 14:50:00,31.9,6.0,30.26,SE,126,1.0,7.0,33,0.00,,,0.00,Wunderground v.1.15,2014-01-28 19:50:00,
2014-01-28 14:55:00,31.9,6.7,30.26,SSE,156,1.0,7.0,34,0.00,,,0.00,Wunderground v.1.15,2014-01-28 19:55:00,
2014-01-28 15:00:00,32.1,6.8,30.26,South,183,1.0,7.0,34,0.00,,,0.00,Wunderground v.1.15,2014-01-28 20:00:00,
2014-01-28 15:05:00,31.9,6.7,30.26,NE,42,2.0,7.0,34,0.00,,,0.00,Wunderground v.1.15,2014-01-28 20:05:00,
2014-01-28 15:10:00,31.8,7.2,30.26,SSW,210,1.0,7.0,35,0.00,,,0.00,Wunderground v.1.15,2014-01-28 20:10:00,
2014-01-28 15:20:00,31.3,8.6,30.26,South,187,1.0,7.0,38,0.00,,,0.00,Wunderground v.1.15,2014-01-28 20:20:00,
2014-01-28 15:25:00,31.2,8.5,30.26,ESE,114,1.0,7.0,38,0.00,,,0.00,Wunderground v.1.15,2014-01-28 20:25:00,
2014-01-28 15:30:00,31.1,9.0,30.26,South,183,1.0,7.0,39,0.00,,,0.00,Wunderground v.1.15,2014-01-28 20:30:00,
2014-01-28 15:35:00,31.0,8.3,30.25,SSE,151,2.0,7.0,38,0.00,,,0.00,Wunderground v.1.15,2014-01-28 20:35:00,
2014-01-28 15:45:00,30.6,8.5,30.25,South,189,1.0,7.0,39,0.00,,,0.00,Wunderground v.1.15,2014-01-28 20:45:00,
2014-01-28 15:50:00,30.2,8.7,30.26,SW,220,2.0,2.0,40,0.00,,,0.00,Wunderground v.1.15,2014-01-28 20:50:00,
2014-01-28 15:55:00,30.0,8.6,30.26,SSE,158,2.0,7.0,40,0.00,,,0.00,Wunderground v.1.15,2014-01-28 20:55:00,
2014-01-28 16:00:00,29.9,9.6,30.26,SSW,200,2.0,2.0,42,0.00,,,0.00,Wunderground v.1.15,2014-01-28 21:00:00,
2014-01-28 16:05:00,29.9,10.1,30.26,South,174,1.0,7.0,43,0.00,,,0.00,Wunderground v.1.15,2014-01-28 21:05:00,
2014-01-28 16:10:00,29.7,10.4,30.26,SE,131,1.0,1.0,44,0.00,,,0.00,Wunderground v.1.15,2014-01-28 21:10:00,
2014-01-28 16:20:00,29.5,10.7,30.26,SSE,167,1.0,7.0,45,0.00,,,0.00,Wunderground v.1.15,2014-01-28 21:20:00,
2014-01-28 16:30:00,29.3,12.5,30.26,ENE,63,1.0,1.0,49,0.00,,,0.00,Wunderground v.1.15,2014-01-28 21:30:00,
2014-01-28 16:35:00,29.2,12.8,30.26,SE,138,0.0,7.0,50,0.00,,,0.00,Wunderground v.1.15,2014-01-28 21:35:00,
2014-01-28 16:40:00,28.9,13.0,30.26,SE,142,1.0,7.0,51,0.00,,,0.00,Wunderground v.1.15,2014-01-28 21:40:00,
2014-01-28 16:50:00,27.9,13.8,30.27,SSE,159,2.0,2.0,55,0.00,,,0.00,Wunderground v.1.15,2014-01-28 21:50:00,
2014-01-28 16:55:00,27.6,16.3,30.27,ESE,107,1.0,7.0,62,0.00,,,0.00,Wunderground v.1.15,2014-01-28 21:55:00,
2014-01-28 17:05:00,26.3,17.5,30.27,South,188,2.0,3.0,69,0.00,,,0.00,Wunderground v.1.15,2014-01-28 22:05:00,
2014-01-28 17:10:00,25.9,18.1,30.26,SSW,205,1.0,7.0,72,0.00,,,0.00,Wunderground v.1.15,2014-01-28 22:10:00,
2014-01-28 17:15:00,25.6,18.1,30.27,South,181,1.0,7.0,73,0.00,,,0.00,Wunderground v.1.15,2014-01-28 22:15:00,
2014-01-28 17:20:00,25.2,18.1,30.27,SSE,154,2.0,7.0,74,0.00,,,0.00,Wunderground v.1.15,2014-01-28 22:20:00,
2014-01-28 17:25:00,24.9,18.1,30.26,SSE,162,2.0,7.0,75,0.00,,,0.00,Wunderground v.1.15,2014-01-28 22:25:00,
2014-01-28 17:30:00,24.5,19.2,30.27,SE,126,1.0,7.0,80,0.00,,,0.00,Wunderground v.1.15,2014-01-28 22:30:00,
2014-01-28 17:35:00,24.6,19.0,30.27,SSW,205,1.0,7.0,79,0.00,,,0.00,Wunderground v.1.15,2014-01-28 22:35:00,
2014-01-28 17:50:00,24.3,19.6,30.27,SSE,164,1.0,7.0,82,0.00,,,0.00,Wunderground v.1.15,2014-01-28 22:50:00,
2014-01-28 17:55:00,24.1,19.4,30.26,South,171,1.0,7.0,82,0.00,,,0.00,Wunderground v.1.15,2014-01-28 22:55:00,
2014-01-28 18:00:00,24.0,19.3,30.27,SSE,149,2.0,7.0,82,0.00,,,0.00,Wunderground v.1.15,2014-01-28 23:00:00,
2014-01-28 18:15:00,23.6,19.5,30.26,SSE,154,1.0,7.0,84,0.00,,,0.00,Wunderground v.1.15,2014-01-28 23:15:00,
2014-01-28 18:20:00,23.5,19.4,30.26,SSW,193,2.0,2.0,84,0.00,,,0.00,Wunderground v.1.15,2014-01-28 23:20:00,
2014-01-28 18:25:00,23.5,19.7,30.26,South,178,1.0,3.0,85,0.00,,,0.00,Wunderground v.1.15,2014-01-28 23:25:00,
2014-01-28 18:30:00,23.4,19.3,30.26,SSE,152,1.0,1.0,84,0.00,,,0.00,Wunderground v.1.15,2014-01-28 23:30:00,
2014-01-28 18:35:00,23.3,19.2,30.26,SE,134,1.0,7.0,84,0.00,,,0.00,Wunderground v.1.15,2014-01-28 23:35:00,
2014-01-28 18:40:00,23.1,19.0,30.26,SSW,200,2.0,7.0,84,0.00,,,0.00,Wunderground v.1.15,2014-01-28 23:40:00,
2014-01-28 18:45:00,23.1,19.3,30.26,SSW,200,1.0,7.0,85,0.00,,,0.00,Wunderground v.1.15,2014-01-28 23:45:00,
2014-01-28 18:50:00,23.0,19.4,30.26,South,174,1.0,1.0,86,0.00,,,0.00,Wunderground v.1.15,2014-01-28 23:50:00,
2014-01-28 18:55:00,23.0,19.7,30.26,South,186,1.0,2.0,87,0.00,,,0.00,Wunderground v.1.15,2014-01-28 23:55:00,
2014-01-28 19:05:00,22.9,19.6,30.27,SSE,152,1.0,7.0,87,0.00,,,0.00,Wunderground v.1.15,2014-01-29 00:05:00,
2014-01-28 19:10:00,23.0,19.7,30.27,WSW,240,0.0,7.0,87,0.00,,,0.00,Wunderground v.1.15,2014-01-29 00:10:00,
2014-01-28 19:20:00,22.7,19.1,30.27,SSE,166,2.0,2.0,86,0.00,,,0.00,Wunderground v.1.15,2014-01-29 00:20:00,
2014-01-28 19:25:00,22.7,19.4,30.27,SSE,164,1.0,7.0,87,0.00,,,0.00,Wunderground v.1.15,2014-01-29 00:25:00,
2014-01-28 19:30:00,22.6,19.3,30.27,South,176,1.0,1.0,87,0.00,,,0.00,Wunderground v.1.15,2014-01-29 00:30:00,
2014-01-28 19:35:00,22.6,19.3,30.27,SSE,148,1.0,7.0,87,0.00,,,0.00,Wunderground v.1.15,2014-01-29 00:35:00,
2014-01-28 19:40:00,22.5,19.2,30.27,SSE,164,1.0,1.0,87,0.00,,,0.00,Wunderground v.1.15,2014-01-29 00:40:00,
2014-01-28 19:50:00,22.5,19.5,30.27,South,173,0.0,7.0,88,0.00,,,0.00,Wunderground v.1.15,2014-01-29 00:50:00,
2014-01-28 19:55:00,22.5,19.2,30.28,ESE,106,1.0,7.0,87,0.00,,,0.00,Wunderground v.1.15,2014-01-29 00:55:00,
2014-01-28 20:00:00,22.5,19.2,30.28,ESE,106,1.0,7.0,87,0.00,,,0.00,Wunderground v.1.15,2014-01-29 01:00:00,
2014-01-28 20:05:00,22.5,19.2,30.28,ESE,104,1.0,7.0,87,0.00,,,0.00,Wunderground v.1.15,2014-01-29 01:05:00,
2014-01-28 20:15:00,22.5,19.2,30.28,SE,143,1.0,7.0,87,0.00,,,0.00,Wunderground v.1.15,2014-01-29 01:15:00,
2014-01-28 20:25:00,22.5,19.5,30.28,South,178,0.0,7.0,88,0.00,,,0.00,Wunderground v.1.15,2014-01-29 01:25:00,
2014-01-28 20:30:00,22.5,19.5,30.28,South,177,0.0,7.0,88,0.00,,,0.00,Wunderground v.1.15,2014-01-29 01:30:00,
2014-01-28 20:35:00,22.5,19.5,30.28,SE,141,1.0,7.0,88,0.00,,,0.00,Wunderground v.1.15,2014-01-29 01:35:00,
2014-01-28 20:40:00,22.5,19.2,30.29,NE,53,1.0,1.0,87,0.00,,,0.00,Wunderground v.1.15,2014-01-29 01:40:00,
2014-01-28 20:45:00,22.5,19.2,30.29,South,174,1.0,7.0,87,0.00,,,0.00,Wunderground v.1.15,2014-01-29 01:45:00,
2014-01-28 20:50:00,22.5,19.5,30.29,South,171,0.0,7.0,88,0.00,,,0.00,Wunderground v.1.15,2014-01-29 01:50:00,
2014-01-28 20:55:00,22.5,19.5,30.29,South,176,0.0,7.0,88,0.00,,,0.00,Wunderground v.1.15,2014-01-29 01:55:00,
2014-01-28 21:00:00,22.4,19.4,30.29,ESE,118,0.0,7.0,88,0.00,,,0.00,Wunderground v.1.15,2014-01-29 02:00:00,
2014-01-28 21:05:00,22.4,19.4,30.29,South,181,0.0,7.0,88,0.00,,,0.00,Wunderground v.1.15,2014-01-29 02:05:00,
2014-01-28 21:10:00,22.4,19.4,30.29,ENE,68,1.0,1.0,88,0.00,,,0.00,Wunderground v.1.15,2014-01-29 02:10:00,
2014-01-28 21:20:00,22.2,18.9,30.29,South,187,1.0,7.0,87,0.00,,,0.00,Wunderground v.1.15,2014-01-29 02:20:00,
2014-01-28 21:25:00,22.2,19.2,30.30,SSE,151,1.0,7.0,88,0.00,,,0.00,Wunderground v.1.15,2014-01-29 02:25:00,
2014-01-28 21:35:00,22.1,19.1,30.28,SSE,159,0.0,7.0,88,0.00,,,0.00,Wunderground v.1.15,2014-01-29 02:35:00,
2014-01-28 21:40:00,22.1,19.1,30.29,SSE,162,0.0,7.0,88,0.00,,,0.00,Wunderground v.1.15,2014-01-29 02:40:00,
2014-01-28 21:45:00,22.1,19.1,30.28,South,188,1.0,7.0,88,0.00,,,0.00,Wunderground v.1.15,2014-01-29 02:45:00,
2014-01-28 21:50:00,22.1,19.1,30.28,SE,124,1.0,1.0,88,0.00,,,0.00,Wunderground v.1.15,2014-01-29 02:50:00,
2014-01-28 21:55:00,22.0,19.0,30.28,SSE,153,1.0,7.0,88,0.00,,,0.00,Wunderground v.1.15,2014-01-29 02:55:00,
2014-01-28 22:05:00,22.0,18.7,30.28,South,185,0.0,7.0,87,0.00,,,0.00,Wunderground v.1.15,2014-01-29 03:05:00,
2014-01-28 22:10:00,22.0,19.0,30.28,SSE,158,0.0,7.0,88,0.00,,,0.00,Wunderground v.1.15,2014-01-29 03:10:00,
2014-01-28 22:15:00,22.0,18.7,30.28,SSE,152,0.0,7.0,87,0.00,,,0.00,Wunderground v.1.15,2014-01-29 03:15:00,
2014-01-28 22:20:00,22.0,18.5,30.28,South,182,1.0,7.0,86,0.00,,,0.00,Wunderground v.1.15,2014-01-29 03:20:00,
2014-01-28 22:30:00,22.0,18.5,30.28,SSE,166,1.0,1.0,86,0.00,,,0.00,Wunderground v.1.15,2014-01-29 03:30:00,
2014-01-28 22:35:00,22.0,18.5,30.29,SE,126,0.0,7.0,86,0.00,,,0.00,Wunderground v.1.15,2014-01-29 03:35:00,
2014-01-28 22:50:00,22.1,18.3,30.28,SSE,152,0.0,7.0,85,0.00,,,0.00,Wunderground v.1.15,2014-01-29 03:50:00,
2014-01-28 22:55:00,22.1,18.3,30.28,South,178,0.0,7.0,85,0.00,,,0.00,Wunderground v.1.15,2014-01-29 03:55:00,
2014-01-28 23:00:00,22.2,18.4,30.28,South,181,0.0,7.0,85,0.00,,,0.00,Wunderground v.1.15,2014-01-29 04:00:00,
2014-01-28 23:10:00,22.3,18.5,30.28,ESE,112,0.0,7.0,85,0.00,,,0.00,Wunderground v.1.15,2014-01-29 04:10:00,
2014-01-28 23:15:00,22.3,18.5,30.28,East,97,0.0,7.0,85,0.00,,,0.00,Wunderground v.1.15,2014-01-29 04:15:00,
2014-01-28 23:20:00,22.3,18.5,30.27,ESE,110,0.0,7.0,85,0.00,,,0.00,Wunderground v.1.15,2014-01-29 04:20:00,
2014-01-28 23:30:00,22.2,18.1,30.27,SSE,157,1.0,1.0,84,0.00,,,0.00,Wunderground v.1.15,2014-01-29 04:30:00,
2014-01-28 23:35:00,22.2,18.1,30.27,ESE,110,1.0,7.0,84,0.00,,,0.00,Wunderground v.1.15,2014-01-29 04:35:00,
2014-01-28 23:40:00,22.2,18.1,30.27,SSW,192,0.0,7.0,84,0.00,,,0.00,Wunderground v.1.15,2014-01-29 04:40:00,
2014-01-28 23:45:00,22.1,18.0,30.27,SSE,163,1.0,7.0,84,0.00,,,0.00,Wunderground v.1.15,2014-01-29 04:45:00,
2014-01-28 23:50:00,22.1,18.0,30.27,SSE,158,1.0,1.0,84,0.00,,,0.00,Wunderground v.1.15,2014-01-29 04:50:00,
2014-01-28 23:55:00,22.1,17.7,30.26,SSE,168,1.0,7.0,83,0.00,,,0.00,Wunderground v.1.15,2014-01-29 04:55:00,